Temperature
12 13 14 14 13 12 13 14 16 18 19 21 21 21 20 19 20 20 19 19 19 18 17 17 17 17 16 16 16 16 16 16 16 16 16 16 16 16 16 16 16 16 16 16 16 16 15 15 15
12 13 13 13 12 12 13 14 16 18 20 21 21 20 19 19 19 18 18 18 19 18 17 17 17 17 16 16 16 16 16 16 16 16 16 16 16 16 16 16 16 16 16 16 16 15 15 15 15
12 12 13 11 11 12 14 15 17 19 20 21 20 20 19 18 18 18 18 18 18 18 17 17 17 16 16 16 16 16 16 16 16 16 16 16 16 16 16 16 16 16 16 16 16 15 15 15 15
11 12 12 11 12 13 15 16 17 18 20 20 19 18 19 18 19 19 18 18 18 18 17 17 16 16 16 16 16 16 16 16 16 16 16 16 16 16 16 16 16 16 16 16 16 15 15 15 15
11 11 10 11 12 14 14 16 18 18 19 20 19 17 18 18 19 19 18 18 18 17 17 16 16 16 16 16 16 16 16 16 16 16 16 16 16 16 16 16 16 16 16 16 16 15 15 15 15
10 10 10 11 12 14 15 17 18 18 18 19 18 16 17 18 19 18 18 18 18 17 17 16 16 16 16 16 16 16 16 16 16 16 16 16 16 16 16 16 16 16 16 16 16 16 15 15 15
9 9 10 11 12 14 15 17 17 17 17 18 18 16 16 17 18 18 17 17 17 17 16 16 16 16 16 16 16 16 16 16 16 16 16 16 16 16 16 16 16 16 16 16 16 16 16 15 15
9 9 10 11 12 13 16 17 17 17 17 18 18 16 16 17 17 17 17 17 17 17 16 16 16 16 16 16 16 16 16 16 16 16 16 16 16 16 16 16 16 16 16 16 16 16 16 16 15
9 9 10 11 12 13 15 15 16 17 17 18 18 18 18 17 17 17 16 16 16 16 16 16 16 16 16 16 16 16 16 16 16 16 16 16 16 16 16 16 16 16 16 16 16 16 16 16 15
9 9 10 11 12 12 13 14 14 16 16 16 17 17 17 17 17 16 16 16 16 16 16 16 16 16 15 15 16 16 16 16 16 16 16 16 16 16 16 16 16 16 16 16 16 16 16 15 15
9 9 10 11 11 12 12 13 14 14 14 15 15 16 16 17 17 16 16 16 16 16 16 16 16 15 15 15 15 15 16 15 16 16 16 16 16 16 16 16 16 16 16 16 16 16 16 15 15
9 9 10 10 11 11 12 12 13 13 14 15 16 16 16 16 16 17 16 16 16 16 16 16 15 15 15 16 15 15 15 16 15 16 16 16 16 16 16 16 16 16 16 16 16 16 16 15 15
8 9 10 10 11 11 11 12 12 13 14 14 15 16 16 16 16 16 16 16 16 16 16 16 15 15 15 15 15 15 15 16 16 16 16 16 16 16 16 16 16 16 16 16 16 16 15 15 15
9 9 9 10 10 11 11 11 12 13 13 14 14 15 15 16 16 16 16 16 16 16 16 16 16 16 15 15 15 15 15 15 16 16 16 16 16 16 16 16 16 16 16 16 15 15 15 15 15
9 9 9 10 10 10 11 11 11 12 13 13 13 14 15 15 16 16 16 16 16 16 16 16 16 15 15 15 15 15 15 15 15 15 15 15 15 16 16 16 16 16 16 15 15 15 15 14 14
8 8 8 9 10 10 10 10 12 12 12 12 13 14 14 15 16 16 16 16 16 16 16 16 16 16 15 15 15 15 15 15 15 15 15 15 15 15 15 15 16 15 15 15 15 15 14 14 14
7 7 8 9 10 10 10 10 11 12 12 12 13 14 14 15 15 16 16 16 16 16 16 15 16 16 15 15 15 15 15 15 15 15 15 15 15 15 15 15 15 15 15 15 14 14 14 14 14
7 7 8 8 9 10 9 10 11 12 12 12 13 13 14 15 15 16 16 16 16 16 16 15 15 15 15 15 15 15 15 15 15 15 15 15 15 14 14 15 15 15 14 14 14 14 14 14 13
7 7 8 8 9 9 9 10 10 11 11 12 12 13 14 15 15 15 16 16 16 16 16 15 15 15 15 15 15 15 15 15 15 15 15 15 15 15 14 14 14 14 14 14 14 14 13 13 13
7 7 7 8 9 9 9 9 10 10 11 12 13 13 14 15 15 15 16 16 16 16 16 15 16 16 15 15 15 15 15 15 15 15 15 15 15 14 14 14 14 14 14 14 14 13 13 13 13
7 7 7 8 8 8 9 8 9 10 11 12 13 13 14 15 15 15 16 16 16 16 16 16 16 16 16 16 15 15 15 15 15 15 15 15 15 14 14 14 14 14 14 14 14 14 13 13 13
6 7 8 8 7 7 8 7 8 9 10 11 12 13 14 15 15 15 16 16 16 16 16 16 16 16 16 15 15 15 15 15 15 15 15 15 14 14 14 14 14 14 14 14 14 13 13 13 13
7 8 8 8 7 6 7 7 8 9 9 10 11 13 14 15 15 15 16 16 16 16 16 16 16 16 16 15 15 15 15 15 15 15 15 14 14 14 14 14 14 14 13 13 13 13 13 12 12
7 7 7 6 6 6 7 7 7 8 9 10 11 12 14 14 15 15 15 16 16 16 16 16 15 15 15 15 15 15 15 15 15 14 14 14 14 14 14 14 13 13 13 13 13 13 12 12 12
6 5 5 5 5 6 7 7 8 9 9 10 11 12 14 14 15 15 15 15 15 15 15 15 15 15 15 15 15 15 15 14 14 14 14 14 14 14 14 13 13 13 13 13 13 12 12 12 12
6 5 5 5 5 5 7 7 8 9 10 11 12 12 13 13 14 14 14 14 15 15 15 15 15 15 15 15 14 14 14 14 14 14 14 14 14 13 13 13 13 13 12 12 12 12 12 12 11
6 5 5 5 5 5 6 7 8 9 9 9 10 11 12 12 13 13 13 14 14 14 14 14 14 14 14 14 14 14 14 14 14 14 13 13 13 13 13 13 12 12 12 12 12 11 11 11 11
6 6 4 4 5 5 6 7 7 8 8 9 9 9 10 11 12 12 12 13 13 13 14 14 14 14 14 14 14 14 13 13 13 13 13 13 13 12 12 12 12 12 12 11 11 11 11 10 10
5 6 5 4 5 5 5 6 8 8 8 8 8 9 10 10 11 11 11 12 12 12 13 13 13 13 13 13 13 13 13 13 13 12 12 12 12 11 11 11 11 11 11 11 10 10 10 10 9
6 6 5 5 5 5 5 6 8 7 7 7 8 8 9 10 10 10 11 11 11 12 12 12 12 12 12 12 12 12 12 12 12 12 11 11 11 11 11 11 10 10 10 10 10 9 9 9 9
Wind_Speed
9 5 1 2 3 3 8 8 5 4 4 3 2 5 7 5 5 5 6 15 19 19 23 25 25 24 23 22 21 20 19 18 17 17 17 17 18 18 19 19 19 20 20 20 20 20 20 19 18
4 1 1 2 6 7 8 8 8 7 5 2 2 3 5 3 3 8 9 17 22 20 22 24 26 25 23 22 21 20 19 18 18 18 18 18 18 19 19 19 19 20 20 20 20 19 18 17 16
3 1 2 4 7 11 8 8 11 7 5 3 2 2 4 5 6 6 11 21 20 18 21 24 26 25 24 22 21 20 19 18 18 18 18 18 19 19 19 20 20 19 19 19 18 17 16 16 15
0 1 2 5 11 11 8 5 5 6 3 1 4 4 2 1 4 10 20 21 20 16 20 25 26 25 24 23 22 20 19 19 19 19 18 19 19 20 20 20 20 19 18 18 17 16 15 15 15
1 3 5 7 11 8 9 6 4 6 3 2 5 5 2 5 10 20 20 20 20 16 20 24 26 25 24 23 22 21 20 19 19 19 19 19 19 19 20 19 19 18 17 17 16 14 13 13 14
2 3 6 11 11 9 8 7 4 6 4 2 4 6 3 3 15 19 19 17 18 17 18 22 25 24 23 23 22 21 20 20 19 19 19 19 19 19 19 19 18 17 16 15 14 13 11 11 12
3 4 6 8 9 8 9 5 6 5 4 3 6 7 4 5 11 16 17 16 16 16 15 17 21 22 22 22 21 21 20 20 20 19 19 19 19 18 18 17 17 16 15 14 13 11 10 10 10
3 3 5 5 7 7 5 3 3 3 4 1 4 8 8 9 11 16 17 15 15 14 13 13 17 19 19 19 21 21 20 20 20 19 20 19 18 17 17 16 16 15 14 12 11 10 8 7 8
2 3 6 6 6 4 2 1 2 2 0 1 1 3 8 14 16 18 17 15 15 15 13 12 13 16 17 18 19 20 20 20 20 19 21 19 16 16 15 15 15 14 13 11 10 8 7 6 5
3 4 5 2 1 1 3 2 3 2 2 2 3 4 8 13 17 20 21 21 19 18 15 13 12 13 15 15 16 16 16 17 17 17 17 16 15 14 14 15 15 14 12 10 9 7 5 3 2
3 4 3 3 3 2 3 5 3 1 1 0 4 8 8 11 14 17 19 20 20 18 16 14 13 14 13 11 13 12 13 14 15 17 16 15 13 12 12 12 12 11 11 8 7 5 4 3 2
2 3 3 4 3 3 3 4 3 1 2 4 2 7 8 10 13 15 16 16 16 17 16 15 13 13 13 13 12 12 11 11 12 15 16 14 10 9 10 10 11 10 9 8 7 5 5 5 5
3 2 2 3 3 2 3 3 2 4 3 3 2 2 6 9 9 9 11 13 15 16 17 16 14 13 12 11 10 11 11 12 14 15 16 15 11 8 9 9 10 10 10 9 7 6 6 6 6
3 1 1 1 1 1 2 4 1 4 1 2 2 3 4 7 8 7 10 12 13 14 15 15 16 14 13 10 9 9 12 13 14 14 16 17 14 12 10 8 9 10 11 11 9 8 6 6 5
2 2 2 1 1 1 0 3 5 6 2 2 4 4 4 5 6 9 11 12 13 13 13 15 16 14 13 12 11 11 12 13 12 14 17 17 16 14 11 8 7 10 12 11 8 7 5 4 3
2 3 1 1 3 2 3 5 6 4 3 4 5 5 5 5 5 7 8 9 10 11 12 13 14 15 14 11 10 9 11 12 12 14 15 17 17 16 12 7 7 11 11 8 5 3 3 3 3
2 3 3 1 3 3 4 4 5 3 4 6 6 6 6 6 5 6 7 8 9 10 12 12 12 14 13 11 9 9 10 10 12 13 13 14 15 15 12 8 8 10 7 5 4 3 3 3 3
3 3 2 3 2 4 4 5 4 4 5 7 6 6 7 7 8 7 7 7 8 9 10 11 11 12 11 9 7 6 6 6 9 10 12 14 14 14 12 8 8 9 5 4 4 3 3 3 3
2 4 2 1 1 3 5 6 6 5 5 7 7 7 8 9 7 6 7 7 7 8 10 11 12 12 11 8 8 7 6 6 6 6 11 13 13 13 11 6 6 6 5 5 5 3 3 3 2
3 4 2 1 1 1 2 6 6 6 7 9 10 9 9 7 6 6 6 6 8 9 10 10 11 11 11 9 7 6 6 4 5 4 7 11 12 12 10 7 6 5 5 5 5 4 3 2 3
3 3 2 2 2 3 1 4 5 5 6 7 8 8 8 9 9 8 8 8 8 9 11 10 11 11 11 10 6 5 4 3 3 5 5 6 10 10 10 9 7 5 6 6 6 6 6 4 4
1 0 2 4 3 1 1 2 5 5 7 9 9 9 10 10 10 10 9 7 7 8 8 9 10 10 10 10 9 10 8 7 7 6 5 5 8 8 9 9 8 6 5 5 5 5 4 5 4
2 1 3 3 3 1 0 2 6 4 7 10 11 11 11 10 10 10 9 7 6 6 6 7 8 8 8 9 10 10 7 6 5 5 6 6 5 6 8 8 7 5 5 5 5 4 5 4 4
2 4 5 4 3 0 4 4 5 5 9 8 8 8 9 8 7 6 5 5 4 4 5 6 6 6 6 8 9 9 9 8 7 6 6 5 4 4 5 6 6 5 4 5 5 5 5 5 5
4 5 3 3 1 4 4 4 7 8 8 9 9 7 6 5 5 4 5 5 5 5 5 5 7 6 6 7 7 8 9 9 9 8 7 6 4 4 5 4 4 3 4 4 4 4 4 5 5
1 4 5 3 3 2 2 5 7 7 6 5 5 3 2 2 3 4 4 5 5 6 6 6 6 5 5 6 7 6 7 6 6 6 6 6 5 4 4 4 4 3 3 3 3 3 4 3 4
3 2 3 3 0 1 3 5 7 4 4 3 1 1 0 1 1 1 2 2 3 4 5 6 7 5 5 5 5 5 5 5 5 5 5 4 4 4 4 4 4 3 3 3 3 2 3 3 3
2 3 3 3 1 1 3 3 3 6 5 4 3 2 2 2 1 1 0 1 1 2 2 3 4 5 4 4 4 4 5 5 5 6 6 5 4 4 5 4 3 3 2 2 2 2 2 2 1
2 1 2 2 2 3 2 4 3 4 4 3 3 2 2 2 1 1 1 0 1 2 2 3 3 4 4 4 4 4 4 5 5 5 5 5 5 5 5 4 4 3 3 2 2 1 2 2 1
3 3 4 2 2 2 2 5 5 2 2 2 3 3 3 2 1 1 0 0 1 1 2 3 3 4 3 4 5 5 5 6 6 6 5 6 6 5 5 4 4 3 3 2 2 2 2 2 2
Wind_Direction
292 311 90 95 119 162 220 227 226 215 214 225 188 134 136 144 164 168 128 138 137 146 150 148 146 143 140 137 133 129 126 125 122 120 119 118 117 116 115 116 115 113 110 109 107 106 104 102 101
300 295 126 134 172 197 224 222 223 221 209 182 123 112 104 98 94 113 127 143 141 145 148 148 146 144 141 139 136 132 129 127 124 121 119 118 118 118 116 114 114 112 111 110 108 107 105 102 98
295 233 180 163 190 202 213 209 220 239 243 200 100 67 112 129 124 130 145 144 140 143 146 149 146 145 143 141 138 135 132 129 125 123 119 119 119 118 116 115 113 112 111 111 110 110 106 100 95
75 143 180 197 213 216 217 200 189 229 260 214 131 83 55 55 152 137 140 142 139 140 145 149 147 146 145 143 141 138 135 133 130 126 123 121 120 118 116 115 114 114 113 113 113 112 106 97 94
110 171 196 220 224 230 231 243 207 212 218 161 131 120 64 345 119 131 140 142 141 140 145 150 148 148 147 145 143 141 138 137 134 131 128 125 123 121 120 119 119 118 117 116 115 113 106 97 95
183 180 194 212 226 235 241 238 237 234 226 161 125 125 133 114 128 138 142 142 142 143 147 151 149 149 148 147 145 143 141 140 138 135 133 130 128 126 126 125 124 123 122 121 119 117 109 99 97
192 185 200 208 221 235 237 222 216 228 236 193 142 128 141 140 140 140 140 139 141 144 147 150 151 150 150 149 148 146 144 143 142 139 137 133 133 132 131 130 129 128 127 126 125 124 116 105 101
182 186 198 202 208 233 245 219 210 217 239 176 131 147 163 168 145 138 138 139 144 146 149 150 151 151 150 150 149 148 146 144 143 141 139 137 136 135 134 133 133 132 132 132 132 132 125 112 103
141 205 207 200 199 235 280 255 299 316 184 44 67 163 164 146 142 140 140 144 152 156 155 154 153 153 152 153 153 150 148 146 143 144 142 140 138 137 138 140 139 139 140 142 143 142 137 123 108
166 208 226 241 215 281 337 342 323 9 357 46 63 72 124 139 147 152 155 158 163 165 164 161 158 156 156 157 154 152 150 150 148 150 147 146 144 144 146 147 147 147 150 153 156 158 155 145 125
189 206 234 294 330 340 348 341 332 64 59 219 151 153 144 147 153 160 162 163 167 167 167 167 164 161 160 155 156 155 155 157 157 158 156 154 151 151 152 152 154 155 157 163 168 173 187 197 212
218 254 239 269 314 342 338 325 337 275 233 293 254 165 155 160 162 165 165 165 166 168 170 170 168 165 164 160 163 163 162 164 166 170 166 161 159 159 162 164 166 168 172 176 183 194 213 232 243
216 254 273 284 293 297 316 293 297 274 303 339 324 183 171 170 172 170 165 163 166 171 172 172 170 169 167 163 168 170 172 174 174 177 177 173 169 170 171 176 178 182 185 187 192 203 219 238 247
189 189 307 264 249 242 277 281 300 269 305 341 305 245 207 183 177 175 171 172 171 173 174 174 174 172 169 169 173 174 178 178 177 180 184 180 177 176 176 179 185 191 196 199 200 208 218 226 224
145 108 23 318 139 178 265 274 241 259 275 267 257 267 251 212 184 184 182 178 175 172 173 174 175 173 172 173 177 177 180 179 180 182 184 183 181 179 180 180 187 197 201 203 204 212 214 219 217
105 112 125 260 166 162 148 241 252 251 198 236 257 267 268 237 210 200 193 182 177 172 174 176 176 175 176 175 177 175 178 178 180 180 181 181 181 180 178 179 189 197 196 194 191 190 192 207 209
79 140 160 224 187 155 173 233 261 229 205 230 248 259 262 247 230 216 201 186 179 176 179 180 177 176 177 173 173 173 175 178 178 177 178 183 181 179 176 181 188 187 184 186 186 188 184 200 218
164 148 152 189 179 159 201 237 255 226 209 233 245 255 254 247 234 220 205 189 179 176 180 183 178 179 175 169 165 163 167 176 177 177 179 182 184 183 180 181 185 180 175 185 189 193 192 196 208
135 130 137 205 150 157 214 244 254 254 234 234 241 243 245 246 249 229 211 192 178 174 177 185 180 179 172 169 168 170 179 180 180 181 181 181 183 184 183 181 181 179 182 190 188 183 197 210 178
96 105 103 46 73 104 226 262 262 249 240 233 231 236 237 245 259 241 217 194 185 182 180 184 185 181 176 176 175 171 164 174 179 173 182 184 183 183 183 179 182 180 180 185 187 179 181 202 175
75 113 135 123 34 29 20 297 264 259 252 251 239 236 235 230 235 235 216 199 189 187 184 185 187 185 180 173 158 144 130 125 164 179 188 191 185 181 178 180 181 183 185 193 194 186 186 204 211
111 208 129 113 94 351 117 275 273 244 254 250 246 241 240 234 227 222 214 201 193 195 187 180 180 182 180 171 171 170 175 183 193 188 187 183 181 179 181 181 184 186 190 196 199 196 197 194 214
160 143 91 107 110 60 176 197 275 250 243 243 241 241 242 236 223 213 208 199 192 186 180 180 174 178 178 176 179 180 182 185 175 170 175 181 181 180 181 180 181 185 191 197 195 191 200 203 210
99 68 54 50 74 266 213 191 267 229 224 237 241 238 239 233 220 213 205 186 186 180 171 166 164 178 180 179 179 180 181 174 166 174 181 183 180 178 180 180 185 190 193 197 198 197 201 209 213
69 87 63 28 19 247 209 202 254 251 242 235 241 238 232 221 202 199 197 188 186 180 177 167 163 175 181 176 181 186 184 179 181 182 187 181 181 185 189 178 182 187 191 189 188 193 204 208 212
130 124 146 169 204 263 227 226 258 269 269 249 232 222 228 229 208 193 194 193 194 188 180 173 172 177 180 180 182 183 180 178 183 182 178 182 183 179 172 162 163 171 178 183 184 195 205 200 210
124 143 166 127 36 262 260 278 307 325 342 359 20 64 54 305 271 198 188 196 195 189 186 178 173 173 176 177 171 168 171 168 169 164 163 163 156 150 143 143 149 155 162 171 173 191 198 188 203
115 133 101 113 155 263 289 285 285 317 335 353 7 7 350 21 33 47 150 180 187 182 157 138 157 166 167 163 165 162 158 156 152 145 147 144 141 135 134 134 137 139 132 125 141 171 175 179 203
144 148 141 147 167 170 245 274 270 280 311 332 343 346 6 12 356 326 303 160 145 125 133 142 150 147 143 144 141 135 133 131 129 132 135 133 130 132 134 138 135 135 133 132 137 153 152 167 183
176 189 166 166 235 198 203 276 302 320 338 0 358 352 353 359 353 337 296 194 137 145 150 157 159 156 157 144 132 131 128 125 124 126 125 124 126 129 128 125 121 127 135 140 150 159 153 167 181
Height
1506 1508 1510 1513 1516 1520 1519 1510 1501 1498 1497 1495 1495 1496 1497 1501 1505 1510 1506 1508 1513 1517 1522 1527 1530 1533 1535 1537 1539 1541 1542 1543 1545 1546 1547 1548 1550 1551 1553 1554 1556 1557 1558 1559 1560 1561 1563 1563 1564
1504 1506 1509 1509 1512 1519 1513 1502 1498 1494 1493 1493 1494 1495 1496 1499 1500 1502 1504 1509 1513 1517 1522 1526 1530 1533 1536 1538 1540 1541 1543 1544 1546 1547 1548 1550 1551 1553 1554 1556 1557 1559 1560 1561 1562 1564 1565 1565 1566
1501 1503 1506 1505 1507 1508 1503 1495 1492 1491 1491 1492 1494 1495 1496 1498 1499 1501 1503 1509 1514 1518 1522 1527 1531 1534 1536 1538 1540 1542 1544 1545 1547 1548 1550 1551 1553 1554 1556 1557 1559 1560 1562 1563 1564 1566 1567 1567 1568
1499 1502 1503 1503 1501 1496 1493 1489 1489 1491 1491 1491 1492 1496 1497 1499 1499 1501 1504 1509 1513 1518 1523 1527 1531 1534 1536 1539 1541 1543 1545 1546 1548 1549 1551 1552 1554 1556 1557 1559 1560 1562 1564 1565 1566 1568 1569 1569 1570
1497 1498 1500 1499 1496 1491 1488 1487 1488 1490 1490 1491 1491 1495 1497 1499 1500 1502 1506 1510 1513 1518 1523 1528 1531 1534 1537 1539 1541 1543 1545 1547 1549 1550 1552 1554 1555 1557 1559 1560 1562 1564 1565 1567 1568 1570 1571 1571 1572
1496 1494 1497 1496 1493 1488 1486 1487 1488 1488 1489 1490 1491 1494 1497 1499 1500 1503 1507 1511 1515 1519 1524 1528 1532 1535 1537 1540 1542 1544 1546 1548 1550 1551 1553 1555 1556 1558 1560 1562 1563 1565 1567 1568 1570 1571 1572 1573 1574
1492 1492 1492 1492 1491 1488 1485 1486 1487 1487 1487 1488 1489 1493 1496 1499 1501 1504 1508 1512 1516 1520 1524 1528 1532 1535 1538 1540 1542 1544 1547 1549 1550 1552 1554 1556 1557 1559 1561 1563 1564 1566 1568 1570 1571 1572 1574 1575 1575
1489 1491 1489 1491 1490 1487 1484 1484 1485 1486 1486 1487 1488 1490 1494 1498 1501 1505 1509 1513 1517 1521 1525 1528 1532 1535 1537 1540 1542 1545 1547 1549 1551 1553 1554 1556 1558 1560 1562 1564 1565 1567 1569 1571 1572 1574 1575 1576 1576
1487 1491 1489 1488 1488 1486 1483 1484 1485 1484 1485 1486 1487 1488 1490 1495 1500 1504 1508 1513 1517 1521 1525 1528 1531 1534 1537 1540 1542 1545 1547 1549 1551 1553 1555 1557 1558 1560 1562 1564 1566 1568 1570 1571 1573 1574 1576 1576 1577
1486 1489 1487 1485 1486 1485 1485 1485 1485 1485 1485 1485 1486 1487 1491 1494 1498 1501 1505 1509 1515 1519 1523 1527 1530 1533 1536 1539 1542 1544 1547 1549 1551 1553 1555 1557 1559 1561 1563 1565 1567 1568 1570 1572 1573 1575 1576 1577 1577
1485 1485 1485 1485 1485 1485 1485 1486 1486 1486 1487 1487 1487 1488 1491 1495 1498 1501 1504 1507 1512 1517 1521 1525 1529 1532 1535 1538 1541 1543 1546 1548 1550 1552 1555 1557 1559 1561 1563 1564 1566 1568 1570 1572 1573 1574 1576 1577 1578
1484 1484 1484 1485 1485 1486 1487 1488 1487 1487 1488 1488 1488 1489 1491 1494 1497 1500 1503 1507 1512 1516 1520 1524 1528 1531 1534 1537 1540 1542 1545 1547 1549 1551 1554 1556 1558 1560 1562 1564 1566 1568 1570 1571 1573 1574 1575 1576 1577
1484 1483 1484 1485 1485 1486 1487 1488 1488 1487 1488 1488 1489 1490 1492 1494 1497 1500 1503 1507 1511 1515 1518 1522 1526 1529 1533 1536 1539 1541 1544 1546 1549 1551 1553 1555 1557 1559 1561 1564 1566 1567 1569 1571 1572 1573 1574 1575 1576
1483 1483 1484 1485 1485 1486 1488 1487 1488 1487 1488 1490 1491 1491 1493 1494 1497 1499 1502 1505 1509 1512 1516 1520 1524 1528 1531 1534 1537 1540 1543 1545 1548 1550 1552 1554 1556 1558 1560 1562 1564 1566 1568 1570 1571 1572 1573 1574 1575
1483 1485 1485 1485 1485 1487 1488 1488 1487 1487 1488 1490 1491 1492 1493 1494 1497 1499 1501 1504 1506 1510 1514 1518 1521 1526 1529 1533 1536 1539 1541 1544 1546 1548 1551 1553 1555 1557 1559 1561 1563 1565 1567 1568 1569 1570 1571 1572 1573
1483 1486 1489 1487 1486 1487 1492 1491 1486 1486 1488 1489 1491 1491 1492 1494 1496 1498 1500 1503 1505 1509 1512 1516 1519 1523 1527 1531 1534 1537 1540 1542 1545 1547 1549 1551 1553 1556 1557 1559 1561 1563 1564 1566 1567 1568 1569 1570 1570
1486 1489 1489 1488 1485 1486 1489 1489 1486 1486 1487 1489 1490 1491 1492 1493 1495 1497 1499 1501 1503 1507 1510 1514 1517 1520 1524 1528 1532 1535 1537 1540 1543 1545 1547 1550 1552 1554 1555 1557 1559 1560 1562 1563 1565 1566 1567 1568 1568
1489 1489 1488 1488 1486 1486 1488 1487 1485 1486 1487 1488 1489 1490 1491 1491 1493 1495 1497 1499 1502 1505 1508 1511 1514 1518 1522 1525 1529 1532 1535 1538 1540 1542 1545 1547 1549 1551 1553 1555 1556 1558 1559 1561 1562 1563 1564 1565 1565
1486 1487 1488 1487 1485 1487 1488 1488 1486 1485 1485 1486 1487 1489 1490 1490 1492 1494 1496 1498 1500 1503 1506 1509 1512 1515 1518 1521 1525 1528 1531 1534 1537 1539 1542 1544 1546 1548 1550 1552 1554 1555 1556 1558 1559 1560 1561 1562 1562
1486 1488 1489 1488 1486 1487 1489 1488 1484 1483 1484 1483 1484 1486 1487 1488 1490 1492 1494 1496 1499 1501 1503 1506 1509 1512 1515 1518 1521 1525 1528 1531 1534 1536 1539 1541 1543 1545 1546 1548 1550 1552 1553 1555 1556 1557 1557 1558 1559
1489 1491 1490 1490 1489 1488 1490 1490 1486 1482 1481 1482 1482 1482 1484 1486 1487 1489 1491 1493 1496 1499 1501 1504 1507 1509 1512 1516 1519 1522 1525 1528 1530 1532 1534 1537 1539 1541 1543 1545 1547 1549 1550 1551 1552 1553 1554 1554 1555
1491 1489 1488 1490 1494 1497 1495 1498 1488 1483 1481 1479 1480 1480 1480 1482 1484 1486 1488 1490 1493 1495 1499 1501 1504 1507 1510 1512 1515 1517 1519 1522 1525 1528 1530 1533 1535 1537 1539 1541 1543 1545 1546 1547 1548 1549 1550 1550 1550
1490 1488 1489 1491 1496 1499 1497 1499 1490 1483 1481 1477 1476 1476 1476 1478 1481 1482 1485 1487 1490 1493 1496 1499 1501 1504 1506 1509 1512 1514 1516 1519 1522 1525 1527 1530 1531 1533 1535 1537 1539 1540 1542 1543 1544 1544 1545 1545 1546
1489 1491 1493 1496 1500 1505 1498 1498 1492 1483 1476 1473 1472 1472 1473 1475 1477 1479 1482 1485 1487 1490 1493 1496 1498 1501 1503 1506 1508 1510 1513 1515 1518 1520 1523 1525 1527 1529 1531 1533 1535 1536 1537 1538 1539 1540 1540 1541 1541
1492 1499 1508 1508 1510 1505 1495 1495 1488 1476 1471 1470 1470 1470 1471 1473 1475 1477 1479 1481 1484 1487 1490 1492 1495 1498 1500 1503 1505 1507 1510 1512 1514 1517 1519 1521 1523 1525 1527 1529 1530 1532 1533 1534 1534 1535 1535 1535 1535
1495 1499 1509 1511 1510 1504 1495 1494 1483 1472 1468 1467 1468 1469 1470 1471 1472 1474 1476 1479 1481 1484 1487 1490 1492 1495 1497 1499 1502 1504 1507 1509 1511 1514 1515 1517 1519 1521 1523 1524 1526 1527 1528 1528 1529 1529 1529 1529 1530
1496 1499 1501 1506 1506 1504 1498 1490 1479 1470 1468 1467 1467 1468 1469 1470 1471 1472 1474 1477 1479 1481 1484 1487 1489 1492 1494 1496 1498 1500 1503 1505 1507 1509 1511 1513 1515 1517 1518 1520 1521 1522 1523 1523 1524 1524 1524 1524 1524
1496 1498 1503 1506 1506 1505 1498 1492 1486 1476 1472 1469 1468 1468 1469 1469 1470 1472 1473 1475 1477 1479 1481 1484 1486 1488 1491 1493 1495 1497 1499 1501 1503 1505 1507 1509 1510 1512 1513 1514 1516 1517 1517 1518 1518 1518 1518 1519 1518
1498 1499 1499 1504 1505 1506 1503 1495 1480 1478 1475 1473 1471 1470 1469 1470 1471 1471 1472 1474 1475 1477 1479 1481 1483 1485 1487 1489 1491 1493 1495 1497 1499 1501 1503 1504 1506 1508 1509 1510 1511 1512 1512 1513 1513 1513 1513 1513 1513
1495 1495 1498 1502 1503 1503 1503 1495 1477 1476 1474 1473 1472 1471 1470 1470 1470 1471 1472 1473 1474 1475 1476 1478 1479 1481 1483 1485 1487 1489 1491 1492 1494 1496 1498 1500 1502 1504 1505 1505 1506 1507 1508 1508 1508 1508 1508 1508 1508